Location: ???????
(55.2903°N, 39.1554°E)
Time: 22:08:59
(UTC+00:00)

Envisat - Visible Passes

Search period start: 20 June 2025 00:00
Search period end: 30 June 2025 00:00
Orbit: 761 x 763 km, 98.3° (Epoch: 20 June)

Date Brightness Start Highest point End Pass type
(mag) Time Alt. Az. Time Alt. Az. Time Alt. Az.
20 Jun 5.1 23:09:13 10° NE 23:12:58 20° E 23:16:42 10° SE visible
21 Jun 5.7 22:33:49 10° ENE 22:34:40 10° E 22:35:31 10° E visible
22 Jun 4.6 23:32:22 10° NNE 23:36:49 30° E 23:41:14 10° SSE visible
23 Jun 5.4 22:55:32 10° NE 22:58:39 16° E 23:01:45 10° ESE visible
25 Jun 4.9 23:18:27 10° NE 23:22:33 24° E 23:26:36 10° SE visible
26 Jun 5.5 22:42:08 10° ENE 22:44:18 13° E 22:46:27 10° ESE visible
27 Jun 4.4 23:41:42 10° NNE 23:46:21 35° E 23:50:58 10° SSE visible
28 Jun 5.2 23:04:40 10° NE 23:08:15 19° E 23:11:48 10° SE visible
